• In Uzbekistan
  • List of Countries
  • For 7 days
  • Water Temperature
  • Satellite Maps
  • Weather Map
  • Weather Widgets
  • user-avatar
    Login

    Hourly Weather Quebec

    Today, 24 November, Friday

    Time Temperature Precipitation Wind Pressure Humidity
    00:00 -18°C° 0.1 mm 5 mps 684 mmHg 89%
    01:00 -19°C° 0 mm 5 mps 684 mmHg 88%
    02:00 -19°C° 0 mm 5 mps 685 mmHg 89%
    03:00 -20°C° 0 mm 5 mps 685 mmHg 90%
    04:00 -20°C° 0 mm 5 mps 686 mmHg 90%
    05:00 -19°C° 0 mm 4 mps 686 mmHg 91%
    06:00 -20°C° 0 mm 4 mps 687 mmHg 92%
    07:00 -20°C° 0 mm 4 mps 687 mmHg 93%
    08:00 -19°C° 0 mm 3 mps 687 mmHg 92%
    09:00 -18°C° 0 mm 3 mps 688 mmHg 90%
    10:00 -18°C° 0 mm 3 mps 688 mmHg 89%
    11:00 -17°C° 0 mm 3 mps 688 mmHg 87%
    12:00 -16°C° 0 mm 3 mps 687 mmHg 85%
    13:00 -16°C° 0 mm 3 mps 687 mmHg 84%
    14:00 -16°C° 0 mm 3 mps 687 mmHg 84%
    15:00 -16°C° 0 mm 3 mps 687 mmHg 85%
    16:00 -17°C° 0 mm 4 mps 686 mmHg 85%
    17:00 -18°C° 0.1 mm 5 mps 686 mmHg 86%
    18:00 -17°C° 0.1 mm 5 mps 685 mmHg 87%
    19:00 -17°C° 0.1 mm 6 mps 684 mmHg 88%
    20:00 -16°C° 0.4 mm 6 mps 683 mmHg 89%
    21:00 -17°C° 0.4 mm 7 mps 682 mmHg 89%
    22:00 -15°C° 0.4 mm 7 mps 681 mmHg 90%
    23:00 -14°C° 0.8 mm 6 mps 680 mmHg 91%

    Tomorrow, 25 November, Saturday

    Time Temperature Precipitation Wind Pressure Humidity
    00:00 -12°C° 0.8 mm 6 mps 680 mmHg 92%
    01:00 -11°C° 0.8 mm 6 mps 679 mmHg 94%
    02:00 -10°C° 0.8 mm 6 mps 678 mmHg 94%
    03:00 -7°C° 0.8 mm 5 mps 678 mmHg 93%
    04:00 -6°C° 0.8 mm 5 mps 677 mmHg 93%
    05:00 -5°C° 0.5 mm 5 mps 677 mmHg 93%
    06:00 -4°C° 0.5 mm 5 mps 677 mmHg 94%
    07:00 -2°C° 0.5 mm 5 mps 676 mmHg 94%
    08:00 -2°C° 0.7 mm 5 mps 676 mmHg 94%
    09:00 -2°C° 0.7 mm 5 mps 676 mmHg 95%
    10:00 -2°C° 0.7 mm 5 mps 676 mmHg 95%
    11:00 -4°C° 0.4 mm 5 mps 677 mmHg 94%
    12:00 -5°C° 0.4 mm 6 mps 677 mmHg 93%
    13:00 -5°C° 0.4 mm 6 mps 677 mmHg 93%
    14:00 -8°C° 0.2 mm 6 mps 678 mmHg 92%
    15:00 -9°C° 0.2 mm 6 mps 679 mmHg 92%
    16:00 -10°C° 0.2 mm 6 mps 680 mmHg 91%
    17:00 -11°C° 0.1 mm 5 mps 681 mmHg 91%
    18:00 -11°C° 0.1 mm 5 mps 682 mmHg 91%
    19:00 -12°C° 0.1 mm 5 mps 683 mmHg 91%
    20:00 -13°C° 0 mm 5 mps 684 mmHg 91%
    21:00 -13°C° 0 mm 5 mps 684 mmHg 91%
    22:00 -14°C° 0 mm 4 mps 685 mmHg 92%
    23:00 -14°C° 0 mm 4 mps 685 mmHg 92%

    Day after tomorrow, 26 November, Sunday

    Time Temperature Precipitation Wind Pressure Humidity
    00:00 -15°C° 0 mm 4 mps 685 mmHg 92%
    01:00 -16°C° 0 mm 4 mps 686 mmHg 92%
    02:00 -17°C° 0 mm 4 mps 686 mmHg 93%
    03:00 -16°C° 0 mm 3 mps 686 mmHg 93%
    04:00 -17°C° 0 mm 3 mps 687 mmHg 94%
    05:00 -18°C° 0 mm 3 mps 687 mmHg 95%
    06:00 -19°C° 0 mm 3 mps 688 mmHg 95%
    07:00 -21°C° 0 mm 3 mps 688 mmHg 95%
    08:00 -19°C° 0 mm 3 mps 688 mmHg 94%
    09:00 -19°C° 0 mm 3 mps 688 mmHg 93%
    10:00 -19°C° 0 mm 3 mps 689 mmHg 92%
    11:00 -18°C° 0 mm 3 mps 688 mmHg 91%
    12:00 -17°C° 0 mm 3 mps 688 mmHg 90%
    13:00 -16°C° 0 mm 2 mps 688 mmHg 89%
    14:00 -17°C° 0 mm 2 mps 688 mmHg 91%
    15:00 -18°C° 0 mm 2 mps 688 mmHg 93%
    16:00 -19°C° 0 mm 2 mps 687 mmHg 96%
    17:00 -18°C° 0 mm 1 mps 687 mmHg 96%
    18:00 -18°C° 0 mm 1 mps 687 mmHg 97%
    19:00 -19°C° 0 mm 1 mps 687 mmHg 97%
    20:00 -19°C° 0 mm 1 mps 687 mmHg 97%
    21:00 -19°C° 0 mm 1 mps 687 mmHg 96%
    22:00 -19°C° 0 mm 1 mps 687 mmHg 96%
    23:00 -19°C° 0 mm 1 mps 687 mmHg 95%

    27 November, Monday

    Time Temperature Precipitation Wind Pressure Humidity
    00:00 -19°C° 0 mm 1 mps 687 mmHg 95%
    01:00 -19°C° 0 mm 1 mps 686 mmHg 95%
    02:00 -20°C° 0 mm 1 mps 687 mmHg 95%
    03:00 -20°C° 0 mm 1 mps 687 mmHg 95%
    04:00 -20°C° 0 mm 1 mps 687 mmHg 96%
    05:00 -20°C° 0 mm 1 mps 687 mmHg 96%
    06:00 -20°C° 0 mm 1 mps 688 mmHg 96%
    07:00 -21°C° 0 mm 2 mps 688 mmHg 97%
    08:00 -20°C° 0 mm 2 mps 689 mmHg 95%
    09:00 -19°C° 0 mm 2 mps 689 mmHg 94%
    10:00 -19°C° 0 mm 3 mps 689 mmHg 93%
    11:00 -18°C° 0 mm 3 mps 689 mmHg 91%
    12:00 -19°C° 0 mm 4 mps 690 mmHg 89%
    13:00 -18°C° 0 mm 4 mps 690 mmHg 87%
    14:00 -19°C° 0 mm 4 mps 690 mmHg 89%
    15:00 -20°C° 0 mm 4 mps 690 mmHg 91%
    16:00 -19°C° 0 mm 3 mps 691 mmHg 93%
    17:00 -21°C° 0 mm 3 mps 691 mmHg 94%
    18:00 -21°C° 0 mm 3 mps 692 mmHg 94%
    19:00 -21°C° 0 mm 3 mps 692 mmHg 95%
    20:00 -19°C° 0 mm 3 mps 693 mmHg 95%
    21:00 -19°C° 0 mm 3 mps 693 mmHg 95%
    22:00 -19°C° 0 mm 3 mps 693 mmHg 95%
    23:00 -21°C° 0 mm 3 mps 693 mmHg 96%

    28 November, Tuesday

    Time Temperature Precipitation Wind Pressure Humidity
    00:00 -20°C° 0 mm 2 mps 694 mmHg 97%
    01:00 -21°C° 0 mm 2 mps 694 mmHg 98%
    02:00 -21°C° 0 mm 2 mps 694 mmHg 97%
    03:00 -21°C° 0 mm 2 mps 694 mmHg 97%
    04:00 -23°C° 0 mm 3 mps 693 mmHg 96%
    05:00 -23°C° 0 mm 4 mps 693 mmHg 93%
    06:00 -21°C° 0 mm 5 mps 692 mmHg 89%
    07:00 -21°C° 0 mm 6 mps 692 mmHg 86%
    08:00 -20°C° 0.6 mm 7 mps 691 mmHg 88%
    09:00 -21°C° 0.6 mm 8 mps 690 mmHg 91%
    10:00 -20°C° 0.6 mm 9 mps 689 mmHg 93%
    11:00 -17°C° 1 mm 9 mps 688 mmHg 91%
    12:00 -16°C° 1 mm 9 mps 687 mmHg 90%
    13:00 -15°C° 1 mm 9 mps 685 mmHg 88%
    14:00 -14°C° 0.4 mm 9 mps 684 mmHg 88%
    15:00 -12°C° 0.4 mm 9 mps 683 mmHg 89%
    16:00 -11°C° 0.4 mm 9 mps 682 mmHg 90%
    17:00 -10°C° 0.8 mm 9 mps 682 mmHg 90%
    18:00 -8°C° 0.8 mm 9 mps 681 mmHg 90%
    19:00 -6°C° 0.8 mm 9 mps 681 mmHg 91%
    20:00 -5°C° 1.4 mm 8 mps 681 mmHg 91%
    21:00 -4°C° 1.4 mm 8 mps 680 mmHg 92%
    22:00 -3°C° 1.4 mm 7 mps 680 mmHg 93%
    23:00 -3°C° 0.4 mm 7 mps 681 mmHg 91%

    29 November, Wednesday

    Time Temperature Precipitation Wind Pressure Humidity
    00:00 -4°C° 0.4 mm 7 mps 681 mmHg 89%
    01:00 -6°C° 0.4 mm 7 mps 682 mmHg 87%
    02:00 -8°C° 0.1 mm 7 mps 683 mmHg 87%
    03:00 -9°C° 0.1 mm 7 mps 684 mmHg 87%
    04:00 -11°C° 0.1 mm 7 mps 684 mmHg 87%
    05:00 -11°C° 0.1 mm 6 mps 685 mmHg 87%
    06:00 -12°C° 0.1 mm 6 mps 686 mmHg 88%
    07:00 -14°C° 0.1 mm 6 mps 687 mmHg 89%
    08:00 -14°C° 0.1 mm 6 mps 687 mmHg 88%
    09:00 -14°C° 0.1 mm 6 mps 688 mmHg 88%
    10:00 -12°C° 0.1 mm 6 mps 689 mmHg 87%
    11:00 -12°C° 0.1 mm 6 mps 689 mmHg 86%
    12:00 -12°C° 0.1 mm 6 mps 690 mmHg 85%
    13:00 -12°C° 0.1 mm 6 mps 691 mmHg 83%
    14:00 -12°C° 0.1 mm 5 mps 691 mmHg 85%
    15:00 -13°C° 0.1 mm 5 mps 692 mmHg 88%
    16:00 -12°C° 0.1 mm 4 mps 693 mmHg 90%
    17:00 -14°C° 0 mm 4 mps 693 mmHg 91%
    18:00 -15°C° 0 mm 4 mps 693 mmHg 92%
    19:00 -16°C° 0 mm 4 mps 694 mmHg 93%
    20:00 -16°C° 0 mm 3 mps 694 mmHg 94%
    21:00 -16°C° 0 mm 3 mps 694 mmHg 95%
    22:00 -17°C° 0 mm 3 mps 695 mmHg 95%
    23:00 -18°C° 0 mm 3 mps 695 mmHg 96%
    Show more